Regional Weather Roundup
Issued by NWS Newport/Morehead, NC

Current Version | Previous Version | Graphics & Text | Print | Product List | Glossary Off
Versions: 1 2 3 4 5 6 7 8 9 10 11 12 13 14 15 16 17 18 19 20 21 22 23 24 25 26 27 28 29 30 31 32 33 34 35 36 37 38 39 40 41 42 43 44 45 46 47 48 49 50

000
ASUS42 KMHX 052124
RWRMHX
WEATHER ROUNDUP FOR EASTERN NORTH CAROLINA
NATIONAL WEATHER SERVICE NEWPORT/MOREHEAD CITY NC
400 PM EST THU MAR 05 2015

NOTE: "FAIR" INDICATES FEW OR NO CLOUDS BELOW 12,000 FEET
WITH NO SIGNIFICANT WEATHER AND/OR OBSTRUCTIONS TO VISIBILITY

NCZ015>017-031-032-045>047-102-103-052200-
NORTH COAST

CITY           SKY/WX    TMP DP  RH WIND       PRES   REMARKS
EDENTON        LGT RAIN  36  34  93 N10G21    30.09R
ELIZABETH CITY LGT RAIN  36  33  89 N22G28    30.08R
KITTY HAWK     CLOUDY    36  36 100 N13G25    30.03R FOG
MANTEO         CLOUDY    36  35  96 N20G35    30.05R FOG

$$

NCZ045>047-081-094-103-104-052200-
CENTRAL COAST

CITY           SKY/WX    TMP DP  RH WIND       PRES   REMARKS
FRISCO         CLOUDY    40  40 100 N15G25    29.99R
SWANQUARTER      N/A     39 N/A N/A N17G29    30.00R

$$

NCZ095-097-098-100-101-052200-
SOUTHERN COAST

CITY           SKY/WX    TMP DP  RH WIND       PRES   REMARKS
BEAUFORT       CLOUDY    47  44  90 NE15G25   29.97R
CEDAR ISLAND     N/A     43 N/A N/A N16G28    30.03R
JACKSONVILLE   CLOUDY    54  46  74 N24G38    29.93R
PINEY ISLAND     N/A    N/A N/A N/A MISG      30.00R
WILMINGTON     MOSUNNY   73  62  68 S20G28    29.88S


$$

NCZ011>013-027>030-043-044-078>080-089-090>093-098-052200-
COASTAL PLAIN

CITY           SKY/WX    TMP DP  RH WIND       PRES   REMARKS
AHOSKIE        LGT RAIN  35  33  93 N10       30.09S
CLINTON        RAIN      40  39  95 N16G30    30.06R
ELIZABETHTOWN  RAIN      44  40  88 N15G32    30.03R
GOLDSBORO      MIX PCPN  37  37 100 N17G31    30.07R FOG
GREENVILLE     LGT RAIN  37  36  93 NE18      30.09R
HAVELOCK       PTSUNNY   50  43  77 NE16G25   30.00R
KENANSVILLE    LGT RAIN  39  37  90 N16G25    30.08R
KINSTON        CLOUDY    39  37  93 N15G25    30.05R
NEW BERN       RAIN      45  41  86 N16G24    30.02R FOG
RICHLANDS      CLOUDY    45  39  81 N14G26    30.02R
ROCKY MOUNT    RAIN      37  35  92 N14       30.10R FOG
WASHINGTON     DRIZZLE   37  35  91 N15G21    30.07R
WHITEVILLE     CLOUDY    81  59  48 SW9       29.87R

$$

AMZ130-135-150-152-154-156-158-170-250-252-270-ANZ085-086-088-633-658-670-052200-
MARINE OBSERVATIONS

STATION/POSITION TIME  TEMP    WIND        PRES    WAVE   SWELL
                       AIR SEA DIR/SP/G            HT/PER HT/PER
                 (UTC) (F)     (DEG/KT/KT) (MB)    (FT/S) (FT/S)
CHESAPEAKE LIGHT 2100   33      20/ 33/ 36 1018.0
64 E VA BEACH    2050   44 53   10/ 29/ 35 1015.1    9/ 7   2/14
DUCK             2100   34 36   10/ 26/ 30 1016.1
2 E DUCK         2011      36                N/A     6/ 7   2/11
10 NE DUCK       2022      38                N/A     7/ 7   2/11
OREGON INLET     2100   36 49  350/ 21/ 27 1016.5
HATTERAS CG      2100      52   10/ 24/ 34 1015.7
CAPE LOOKOUT     2100   63     210/ 18/ 24 1012.6
BEAUFORT LAB     2100   54 50   10/ 14/ 16 1013.1
27 SE WRIGHTSVLE NOT AVBL
5 SE WRIGHTSVLE  NOT AVBL
225 S CAPE HAT   2050   74 73  220/ 21/ 25 1017.9    7/ 7   3/ 9
41 SE CHARLESTON 2050   70 68  210/ 21/ 25 1013.9    7/ 6

$$



USA.gov is the U.S. government's official web portal to all federal, state and local government web resources and services.